EW4397 Weather Reports


time (UTC)temp
C
wind
direction
speed
KPH
gust
KPH
rain 1hr
cm
rain 24hr
cm
rain mn
cm
humidity
%
barometer
mb
20260506221547 28 147 0.0 12.9 0.00 0.00 0.00 70 1013.2
20260506220047 28 124 3.2 8.0 0.00 0.00 0.00 70 1013.0
20260506214546 29 126 1.6 9.7 0.00 0.00 0.00 70 1013.1
20260506213045 29 155 4.8 14.5 0.00 0.00 0.00 69 1012.9
20260506211545 30 203 3.2 14.5 0.00 0.00 0.00 67 1013.0
20260506210044 30 118 3.2 14.5 0.00 0.00 0.00 66 1013.1
20260506204553 30 291 1.6 9.7 0.00 0.00 0.00 66 1013.2
20260506203042 30 75 1.6 12.9 0.00 0.00 0.00 64 1013.2
20260506201541 31 123 1.6 11.3 0.00 0.00 0.00 63 1013.3
20260506200042 31 229 3.2 11.3 0.00 0.00 0.00 61 1013.5
20260506194544 31 196 4.8 14.5 0.00 0.00 0.00 61 1013.7
20260506193035 32 198 1.6 11.3 0.00 0.00 0.00 60 1013.7
20260506191533 32 287 3.2 9.7 0.00 0.00 0.00 60 1014.1
20260506190032 32 208 3.2 11.3 0.00 0.00 0.00 58 1014.2
20260506184529 33 210 1.6 8.0 0.00 0.00 0.00 49 1014.3
20260506183027 32 198 1.6 11.3 0.00 0.00 0.00 50 1014.5
20260506181527 32 131 1.6 12.9 0.00 0.00 0.00 52 1014.7
20260506180023 32 204 1.6 9.7 0.00 0.00 0.00 52 1014.8
20260506174521 32 192 3.2 12.9 0.00 0.00 0.00 52 1015.0
20260506173018 31 211 1.6 14.5 0.00 0.00 0.00 54 1015.3
20260506171525 31 211 4.8 14.5 0.00 0.00 0.00 55 1015.5
20260506170013 31 206 4.8 14.5 0.00 0.00 0.00 55 1015.5
20260506164514 30 208 3.2 19.3 0.00 0.00 0.00 57 1015.8
20260506163011 30 213 1.6 6.4 0.00 0.00 0.00 59 1016.2
20260506161510 30 219 1.6 16.1 0.00 0.00 0.00 59 1016.2
20260506160008 30 200 4.8 11.3 0.00 0.00 0.00 60 1016.1
20260506154504 28 198 4.8 12.9 0.00 0.00 0.00 62 1016.3
20260506153001 28 208 1.6 9.7 0.00 0.00 0.00 63 1016.2
20260506151608 28 206 4.8 17.7 0.00 0.00 0.00 63 1016.2
20260506150056 27 210 3.2 9.7 0.00 0.00 0.00 64 1016.1
20260506144602 27 199 3.2 11.3 0.00 0.00 0.00 65 1016.1
20260506143055 26 192 1.6 11.3 0.00 0.00 0.00 67 1016.1
20260506141548 26 210 4.8 12.9 0.00 0.00 0.00 67 1016.0
20260506140056 26 208 4.8 11.3 0.00 0.00 0.00 70 1016.0
20260506134544 25 206 3.2 16.1 0.00 0.00 0.00 74 1016.2
20260506133041 24 212 3.2 9.7 0.00 0.00 0.00 78 1016.1
20260506131537 23 209 6.4 14.5 0.00 0.00 0.00 79 1016.0
20260506130032 22 233 3.2 6.4 0.00 0.00 0.00 82 1016.0
20260506124527 21 213 1.6 9.7 0.00 0.00 0.00 84 1016.0
20260506123024 21 198 1.6 6.4 0.00 0.00 0.00 86 1015.8
20260506121518 20 195 0.0 3.2 0.00 0.00 0.00 90 1015.7
20260506120014 18 274 0.0 1.6 0.00 0.00 0.00 94 1015.5
20260506114516 16 239 0.0 0.0 0.00 0.00 0.00 95 1015.5
20260506113012 15 240 0.0 0.0 0.00 0.00 0.00 94 1015.3
20260506111510 15 241 0.0 0.0 0.00 0.00 0.00 94 1015.2
20260506110009 15 208 0.0 0.0 0.00 0.00 0.00 93 1014.9
20260506104508 15 208 0.0 0.0 0.00 0.00 0.00 93 1014.9
20260506103013 15 208 0.0 0.0 0.00 0.00 0.00 93 1015.0
20260506101506 15 208 0.0 0.0 0.00 0.00 0.00 92 1014.9
20260506100005 15 208 0.0 0.0 0.00 0.00 0.00 93 1014.9
20260506094513 15 208 0.0 0.0 0.00 0.00 0.00 93 1014.8
20260506093004 15 208 0.0 0.0 0.00 0.00 0.00 93 1014.7
20260506091502 15 208 0.0 0.0 0.00 0.00 0.00 92 1014.7
20260506090001 15 208 0.0 0.0 0.00 0.00 0.00 93 1014.5
20260506084605 15 208 0.0 0.0 0.00 0.00 0.00 93 1014.7
20260506083059 15 208 0.0 0.0 0.00 0.00 0.00 93 1014.7
20260506081558 15 208 0.0 0.0 0.00 0.00 0.00 93 1014.6
20260506073103 15 208 0.0 0.0 0.00 0.00 0.00 92 1014.3
20260506071609 15 208 0.0 0.0 0.00 0.00 0.00 92 1014.2
20260506061545 15 208 0.0 0.0 0.00 0.00 0.00 90 1015.1
20260506044535 16 208 0.0 0.0 0.00 0.00 0.00 88 1015.7
20260506043033 16 208 0.0 0.0 0.00 0.00 0.00 87 1015.7
20260506041542 16 208 0.0 0.0 0.00 0.00 0.00 85 1015.6
20260506040030 17 208 0.0 0.0 0.00 0.00 0.00 85 1015.7
20260506034527 17 208 0.0 0.0 0.00 0.00 0.00 84 1015.7
20260506033031 17 208 0.0 0.0 0.00 0.00 0.00 83 1015.8
20260506031528 18 208 0.0 0.0 0.00 0.00 0.00 82 1015.8
20260506030031 18 208 0.0 0.0 0.00 0.00 0.00 82 1015.7
20260506024525 18 208 0.0 0.0 0.00 0.00 0.00 81 1015.6
20260506023025 19 208 0.0 0.0 0.00 0.00 0.00 80 1015.3
20260506021524 19 208 0.0 0.0 0.00 0.00 0.00 79 1015.2
20260506020025 20 208 0.0 0.0 0.00 0.00 0.00 77 1015.1
20260506014533 20 208 0.0 0.0 0.00 0.00 0.00 76 1014.9
20260506013028 21 207 0.0 1.6 0.00 0.00 0.00 74 1014.9
20260506011523 21 207 0.0 3.2 0.00 0.00 0.00 73 1014.9
20260506010027 21 290 0.0 1.6 0.00 0.00 0.00 71 1014.8
20260506004535 22 141 0.0 1.6 0.00 0.00 0.00 71 1014.7
20260506003021 22 227 0.0 1.6 0.00 0.00 0.00 70 1014.6
20260506001521 22 237 0.0 1.6 0.00 0.00 0.00 69 1014.6
20260506000023 22 255 0.0 3.2 0.00 0.00 0.00 69 1014.5
20260505234521 23 258 0.0 8.0 0.00 0.00 0.00 69 1014.6
20260505233019 23 210 1.6 16.1 0.00 0.00 0.00 67 1014.6
20260505231519 23 101 3.2 12.9 0.00 0.00 0.00 67 1014.4
20260505230018 24 102 1.6 9.7 0.00 0.00 0.00 67 1014.4
20260505224531 24 176 1.6 6.4 0.00 0.00 0.00 64 1014.4
20260505223023 24 204 3.2 9.7 0.00 0.00 0.00 65 1014.5